| time (UTC) | temp C | wind direction | speed KPH | gust KPH | rain 1hr cm | rain 24hr cm | rain mn cm | humidity % | barometer mb |
| 20260504035538 | 12 | 308 | 3.2 | 3.2 | 0.00 | 0.00 | 0.00 | 70 | 1013.0 |
| 20260504035034 | 12 | 301 | 3.2 | 4.8 | 0.00 | 0.00 | 0.00 | 70 | 1013.2 |
| 20260504034533 | 12 | 331 | 4.8 | 4.8 | 0.00 | 0.00 | 0.00 | 72 | 1012.9 |
| 20260504034029 | 12 | 304 | 3.2 | 3.2 | 0.00 | 0.00 | 0.00 | 74 | 1013.2 |
| 20260504033528 | 12 | 303 | 1.6 | 1.6 | 0.00 | 0.00 | 0.00 | 75 | 1013.0 |
| 20260504033024 | 12 | 300 | 1.6 | 1.6 | 0.00 | 0.00 | 0.00 | 73 | 1012.9 |
| 20260504032521 | 12 | 306 | 3.2 | 3.2 | 0.00 | 0.00 | 0.00 | 71 | 1012.8 |
| 20260504032018 | 12 | 307 | 1.6 | 1.6 | 0.00 | 0.00 | 0.00 | 72 | 1012.9 |
| 20260504031515 | 13 | 309 | 3.2 | 3.2 | 0.00 | 0.00 | 0.00 | 69 | 1013.0 |
| 20260504031011 | 13 | 303 | 1.6 | 3.2 | 0.00 | 0.00 | 0.00 | 68 | 1013.0 |
| 20260504030509 | 13 | 306 | 3.2 | 3.2 | 0.00 | 0.00 | 0.00 | 68 | 1012.9 |
| 20260504030005 | 13 | 307 | 3.2 | 3.2 | 0.00 | 0.00 | 0.00 | 68 | 1012.8 |
| 20260504025502 | 13 | 306 | 1.6 | 1.6 | 0.00 | 0.00 | 0.00 | 68 | 1012.8 |
| 20260504024958 | 13 | 310 | 0.0 | 0.0 | 0.00 | 0.00 | 0.00 | 67 | 1012.9 |
| 20260504024455 | 13 | 298 | 1.6 | 1.6 | 0.00 | 0.00 | 0.00 | 66 | 1012.8 |
| 20260504023952 | 13 | 307 | 3.2 | 3.2 | 0.00 | 0.00 | 0.00 | 65 | 1012.7 |
| 20260504023449 | 13 | 306 | 3.2 | 3.2 | 0.00 | 0.00 | 0.00 | 65 | 1012.6 |
| 20260504022944 | 13 | 298 | 1.6 | 3.2 | 0.00 | 0.00 | 0.00 | 66 | 1012.8 |
| 20260504022441 | 14 | 310 | 1.6 | 1.6 | 0.00 | 0.00 | 0.00 | 65 | 1012.5 |
| 20260504021937 | 13 | 311 | 1.6 | 3.2 | 0.00 | 0.00 | 0.00 | 65 | 1012.6 |
| 20260504021435 | 13 | 293 | 3.2 | 3.2 | 0.00 | 0.00 | 0.00 | 66 | 1012.5 |
| 20260504020932 | 13 | 308 | 0.0 | 0.0 | 0.00 | 0.00 | 0.00 | 68 | 1012.3 |
| 20260504020428 | 13 | 303 | 0.0 | 0.0 | 0.00 | 0.00 | 0.00 | 68 | 1012.4 |
| 20260504015925 | 13 | 303 | 0.0 | 1.6 | 0.00 | 0.00 | 0.00 | 68 | 1012.3 |
| 20260504015421 | 14 | 304 | 0.0 | 1.6 | 0.00 | 0.00 | 0.00 | 66 | 1012.1 |
| 20260504014917 | 14 | 276 | 1.6 | 3.2 | 0.00 | 0.00 | 0.00 | 66 | 1012.2 |
| 20260504014414 | 14 | 301 | 0.0 | 1.6 | 0.00 | 0.00 | 0.00 | 67 | 1012.2 |
| 20260504013910 | 13 | 301 | 1.6 | 1.6 | 0.00 | 0.00 | 0.00 | 67 | 1012.1 |
| 20260504013409 | 14 | 305 | 0.0 | 0.0 | 0.00 | 0.00 | 0.00 | 67 | 1012.1 |
| 20260504012905 | 15 | 299 | 0.0 | 1.6 | 0.00 | 0.00 | 0.00 | 65 | 1012.1 |
| 20260504012403 | 15 | 310 | 0.0 | 1.6 | 0.00 | 0.00 | 0.00 | 64 | 1012.0 |
| 20260504011900 | 15 | 306 | 0.0 | 0.0 | 0.00 | 0.00 | 0.00 | 63 | 1012.1 |
| 20260504011357 | 15 | 278 | 1.6 | 1.6 | 0.00 | 0.00 | 0.00 | 62 | 1012.0 |
| 20260504010852 | 15 | 304 | 1.6 | 1.6 | 0.00 | 0.00 | 0.00 | 62 | 1012.1 |
| 20260504010348 | 15 | 305 | 0.0 | 1.6 | 0.00 | 0.00 | 0.00 | 61 | 1012.0 |
| 20260504005845 | 15 | 308 | 1.6 | 3.2 | 0.00 | 0.00 | 0.00 | 62 | 1011.7 |
| 20260504005342 | 15 | 302 | 1.6 | 1.6 | 0.00 | 0.00 | 0.00 | 62 | 1011.9 |
| 20260504004839 | 15 | 296 | 3.2 | 3.2 | 0.00 | 0.00 | 0.00 | 63 | 1011.9 |
| 20260504004337 | 15 | 303 | 1.6 | 1.6 | 0.00 | 0.00 | 0.00 | 62 | 1011.8 |
| 20260504003833 | 15 | 277 | 1.6 | 3.2 | 0.00 | 0.00 | 0.00 | 62 | 1011.7 |
| 20260504003330 | 15 | 274 | 1.6 | 3.2 | 0.00 | 0.00 | 0.00 | 62 | 1011.7 |
| 20260504002827 | 16 | 306 | 0.0 | 0.0 | 0.00 | 0.00 | 0.00 | 62 | 1011.6 |
| 20260504002324 | 16 | 306 | 1.6 | 1.6 | 0.00 | 0.00 | 0.00 | 61 | 1011.8 |
| 20260504001821 | 16 | 259 | 3.2 | 3.2 | 0.00 | 0.00 | 0.00 | 60 | 1011.4 |
| 20260504001319 | 16 | 298 | 1.6 | 1.6 | 0.00 | 0.00 | 0.00 | 60 | 1011.7 |
| 20260504000815 | 16 | 279 | 1.6 | 3.2 | 0.00 | 0.00 | 0.00 | 59 | 1011.7 |
| 20260504000312 | 16 | 301 | 0.0 | 1.6 | 0.00 | 0.00 | 0.00 | 60 | 1011.4 |
| 20260503235810 | 17 | 303 | 0.0 | 1.6 | 0.00 | 0.00 | 0.00 | 58 | 1011.6 |
| 20260503235307 | 17 | 284 | 1.6 | 3.2 | 0.00 | 0.00 | 0.00 | 55 | 1011.6 |
| 20260503234804 | 17 | 274 | 3.2 | 3.2 | 0.00 | 0.00 | 0.00 | 55 | 1011.6 |
| 20260503234257 | 17 | 285 | 3.2 | 3.2 | 0.00 | 0.00 | 0.00 | 54 | 1011.6 |
| 20260503233754 | 18 | 291 | 3.2 | 3.2 | 0.00 | 0.00 | 0.00 | 53 | 1011.6 |
| 20260503233249 | 18 | 288 | 4.8 | 4.8 | 0.00 | 0.00 | 0.00 | 51 | 1011.5 |
| 20260503232747 | 18 | 284 | 4.8 | 4.8 | 0.00 | 0.00 | 0.00 | 52 | 1011.6 |
| 20260503232244 | 18 | 267 | 4.8 | 4.8 | 0.00 | 0.00 | 0.00 | 50 | 1011.6 |
| 20260503231742 | 18 | 249 | 8.0 | 9.7 | 0.00 | 0.00 | 0.00 | 49 | 1011.6 |
| 20260503231239 | 18 | 276 | 4.8 | 4.8 | 0.00 | 0.00 | 0.00 | 50 | 1011.7 |
| 20260503230734 | 18 | 282 | 6.4 | 6.4 | 0.00 | 0.00 | 0.00 | 50 | 1011.7 |
| 20260503230231 | 18 | 279 | 8.0 | 9.7 | 0.00 | 0.00 | 0.00 | 48 | 1011.7 |
| 20260503225724 | 18 | 281 | 3.2 | 3.2 | 0.00 | 0.00 | 0.00 | 49 | 1011.7 |
| 20260503225224 | 18 | 299 | 6.4 | 6.4 | 0.00 | 0.00 | 0.00 | 47 | 1011.6 |
| 20260503224721 | 18 | 324 | 6.4 | 9.7 | 0.00 | 0.00 | 0.00 | 47 | 1011.7 |
| 20260503224219 | 19 | 298 | 6.4 | 9.7 | 0.00 | 0.00 | 0.00 | 46 | 1011.6 |
| 20260503223716 | 19 | 351 | 3.2 | 4.8 | 0.00 | 0.00 | 0.00 | 47 | 1011.6 |
| 20260503223214 | 20 | 347 | 6.4 | 6.4 | 0.00 | 0.00 | 0.00 | 46 | 1011.7 |
| 20260503222710 | 20 | 292 | 6.4 | 9.7 | 0.00 | 0.00 | 0.00 | 46 | 1011.8 |
| 20260503222208 | 20 | 265 | 9.7 | 11.3 | 0.00 | 0.00 | 0.00 | 44 | 1011.9 |
| 20260503221706 | 20 | 311 | 1.6 | 3.2 | 0.00 | 0.00 | 0.00 | 45 | 1011.7 |
| 20260503221203 | 20 | 306 | 4.8 | 6.4 | 0.00 | 0.00 | 0.00 | 45 | 1011.9 |
| 20260503220700 | 20 | 326 | 6.4 | 11.3 | 0.00 | 0.00 | 0.00 | 43 | 1011.8 |
| 20260503220156 | 20 | 330 | 4.8 | 6.4 | 0.00 | 0.00 | 0.00 | 44 | 1011.9 |
| 20260503215653 | 20 | 288 | 4.8 | 6.4 | 0.00 | 0.00 | 0.00 | 43 | 1011.9 |
| 20260503215149 | 20 | 305 | 11.3 | 12.9 | 0.00 | 0.00 | 0.00 | 44 | 1012.1 |
| 20260503214648 | 21 | 318 | 1.6 | 1.6 | 0.00 | 0.00 | 0.00 | 42 | 1011.8 |
| 20260503214143 | 20 | 320 | 1.6 | 1.6 | 0.00 | 0.00 | 0.00 | 43 | 1012.0 |
| 20260503213638 | 20 | 317 | 4.8 | 4.8 | 0.00 | 0.00 | 0.00 | 42 | 1012.0 |
| 20260503213134 | 20 | 319 | 9.7 | 11.3 | 0.00 | 0.00 | 0.00 | 46 | 1012.0 |
| 20260503212631 | 20 | 297 | 11.3 | 14.5 | 0.00 | 0.00 | 0.00 | 45 | 1012.0 |
| 20260503212129 | 20 | 282 | 14.5 | 14.5 | 0.00 | 0.00 | 0.00 | 41 | 1012.0 |
| 20260503211627 | 20 | 332 | 0.0 | 1.6 | 0.00 | 0.00 | 0.00 | 43 | 1012.1 |
| 20260503211121 | 20 | 326 | 1.6 | 3.2 | 0.00 | 0.00 | 0.00 | 43 | 1012.1 |
| 20260503210618 | 20 | 332 | 6.4 | 11.3 | 0.00 | 0.00 | 0.00 | 45 | 1012.2 |
| 20260503210114 | 21 | 338 | 9.7 | 11.3 | 0.00 | 0.00 | 0.00 | 43 | 1012.2 |
| 20260503205605 | 20 | 304 | 4.8 | 6.4 | 0.00 | 0.00 | 0.00 | 44 | 1012.3 |
| 20260503205101 | 20 | 326 | 6.4 | 9.7 | 0.00 | 0.00 | 0.00 | 46 | 1012.3 |
| 20260503204558 | 20 | 298 | 9.7 | 11.3 | 0.00 | 0.00 | 0.00 | 43 | 1012.3 |
| 20260503204056 | 19 | 293 | 3.2 | 3.2 | 0.00 | 0.00 | 0.00 | 44 | 1012.4 |
| 20260503203553 | 20 | 287 | 8.0 | 11.3 | 0.00 | 0.00 | 0.00 | 48 | 1012.7 |
| 20260503203050 | 21 | 4 | 1.6 | 1.6 | 0.00 | 0.00 | 0.00 | 42 | 1012.6 |
| 20260503202548 | 20 | 308 | 6.4 | 9.7 | 0.00 | 0.00 | 0.00 | 46 | 1012.7 |
| 20260503202045 | 18 | 324 | 12.9 | 17.7 | 0.00 | 0.00 | 0.00 | 45 | 1012.9 |
| 20260503201543 | 19 | 318 | 11.3 | 14.5 | 0.00 | 0.00 | 0.00 | 45 | 1012.9 |
| 20260503201040 | 20 | 333 | 1.6 | 3.2 | 0.00 | 0.00 | 0.00 | 46 | 1012.8 |
| 20260503200536 | 19 | 291 | 9.7 | 11.3 | 0.00 | 0.00 | 0.00 | 45 | 1013.1 |
| 20260503200033 | 19 | 300 | 12.9 | 14.5 | 0.00 | 0.00 | 0.00 | 45 | 1013.3 |
| 20260503195530 | 20 | 293 | 16.1 | 16.1 | 0.00 | 0.00 | 0.00 | 46 | 1013.4 |
| 20260503195026 | 19 | 314 | 4.8 | 4.8 | 0.00 | 0.00 | 0.00 | 45 | 1013.5 |
| 20260503194524 | 18 | 322 | 1.6 | 3.2 | 0.00 | 0.00 | 0.00 | 46 | 1013.3 |
| 20260503194023 | 20 | 277 | 16.1 | 17.7 | 0.00 | 0.00 | 0.00 | 46 | 1013.5 |
| 20260503193520 | 19 | 243 | 8.0 | 11.3 | 0.00 | 0.00 | 0.00 | 45 | 1013.8 |
| 20260503193015 | 19 | 319 | 1.6 | 1.6 | 0.00 | 0.00 | 0.00 | 46 | 1014.1 |
| 20260503192512 | 18 | 308 | 3.2 | 4.8 | 0.00 | 0.00 | 0.00 | 47 | 1014.2 |
| 20260503192008 | 18 | 300 | 14.5 | 16.1 | 0.00 | 0.00 | 0.00 | 48 | 1013.7 |
| 20260503191505 | 19 | 230 | 11.3 | 12.9 | 0.00 | 0.00 | 0.00 | 44 | 1014.3 |
| 20260503191001 | 19 | 314 | 11.3 | 12.9 | 0.00 | 0.00 | 0.00 | 44 | 1014.1 |
| 20260503190459 | 19 | 279 | 14.5 | 16.1 | 0.00 | 0.00 | 0.00 | 46 | 1014.2 |
| 20260503185956 | 19 | 310 | 8.0 | 9.7 | 0.00 | 0.00 | 0.00 | 46 | 1014.1 |
| 20260503185452 | 19 | 3 | 3.2 | 6.4 | 0.00 | 0.00 | 0.00 | 44 | 1014.3 |
| 20260503184951 | 18 | 315 | 17.7 | 20.9 | 0.00 | 0.00 | 0.00 | 46 | 1014.1 |
| 20260503184448 | 18 | 353 | 1.6 | 3.2 | 0.00 | 0.00 | 0.00 | 52 | 1014.4 |
| 20260503183944 | 19 | 279 | 4.8 | 4.8 | 0.00 | 0.00 | 0.00 | 43 | 1014.6 |
| 20260503183441 | 18 | 319 | 3.2 | 4.8 | 0.00 | 0.00 | 0.00 | 44 | 1014.6 |
| 20260503182938 | 18 | 269 | 11.3 | 16.1 | 0.00 | 0.00 | 0.00 | 45 | 1014.7 |
| 20260503182437 | 19 | 5 | 4.8 | 4.8 | 0.00 | 0.00 | 0.00 | 45 | 1014.5 |
| 20260503181934 | 18 | 315 | 0.0 | 1.6 | 0.00 | 0.00 | 0.00 | 49 | 1014.5 |
| 20260503181431 | 18 | 236 | 3.2 | 4.8 | 0.00 | 0.00 | 0.00 | 48 | 1014.7 |
| 20260503180927 | 17 | 295 | 3.2 | 3.2 | 0.00 | 0.00 | 0.00 | 47 | 1014.6 |
| 20260503180426 | 17 | 315 | 6.4 | 9.7 | 0.00 | 0.00 | 0.00 | 51 | 1014.8 |
| 20260503175922 | 18 | 261 | 9.7 | 11.3 | 0.00 | 0.00 | 0.00 | 47 | 1014.8 |
| 20260503175420 | 17 | 306 | 6.4 | 6.4 | 0.00 | 0.00 | 0.00 | 51 | 1014.7 |
| 20260503174915 | 18 | 293 | 6.4 | 11.3 | 0.00 | 0.00 | 0.00 | 45 | 1014.8 |
| 20260503174414 | 18 | 96 | 6.4 | 6.4 | 0.00 | 0.00 | 0.00 | 45 | 1014.7 |
| 20260503173909 | 17 | 317 | 6.4 | 9.7 | 0.00 | 0.00 | 0.00 | 47 | 1014.8 |
| 20260503173405 | 17 | 294 | 16.1 | 16.1 | 0.00 | 0.00 | 0.00 | 46 | 1014.8 |
| 20260503172902 | 17 | 295 | 6.4 | 6.4 | 0.00 | 0.00 | 0.00 | 49 | 1014.6 |
| 20260503172400 | 17 | 233 | 8.0 | 9.7 | 0.00 | 0.00 | 0.00 | 47 | 1015.0 |
| 20260503171856 | 18 | 284 | 1.6 | 3.2 | 0.00 | 0.00 | 0.00 | 43 | 1014.9 |
| 20260503171353 | 17 | 309 | 9.7 | 11.3 | 0.00 | 0.00 | 0.00 | 44 | 1015.3 |
| 20260503170850 | 17 | 303 | 8.0 | 9.7 | 0.00 | 0.00 | 0.00 | 43 | 1015.2 |
| 20260503170346 | 17 | 307 | 11.3 | 12.9 | 0.00 | 0.00 | 0.00 | 47 | 1015.4 |
| 20260503150739 | 15 | 232 | 8.0 | 9.7 | 0.00 | 0.00 | 0.00 | 49 | 1016.3 |
| 20260503150235 | 15 | 256 | 3.2 | 3.2 | 0.00 | 0.00 | 0.00 | 51 | 1016.4 |
| 20260503140159 | 14 | 321 | 1.6 | 1.6 | 0.00 | 0.00 | 0.00 | 62 | 1016.0 |
| 20260503131129 | 11 | 5 | 3.2 | 4.8 | 0.00 | 0.00 | 0.00 | 69 | 1015.9 |
| 20260503130626 | 11 | 22 | 3.2 | 3.2 | 0.00 | 0.00 | 0.00 | 71 | 1015.8 |
| 20260503130124 | 11 | 60 | 3.2 | 4.8 | 0.00 | 0.00 | 0.00 | 72 | 1015.8 |
| 20260503110516 | 4 | 330 | 0.0 | 0.0 | 0.00 | 0.00 | 0.00 | 99 | 1015.1 |
| 20260503090402 | 5 | 324 | 0.0 | 0.0 | 0.00 | 0.00 | 0.00 | 95 | 1013.4 |
| 20260503081329 | 5 | 318 | 0.0 | 0.0 | 0.00 | 0.00 | 0.00 | 96 | 1013.1 |
| 20260503080826 | 5 | 321 | 0.0 | 0.0 | 0.00 | 0.00 | 0.00 | 96 | 1013.0 |
| 20260503080323 | 5 | 321 | 0.0 | 0.0 | 0.00 | 0.00 | 0.00 | 96 | 1012.7 |
| 20260503072759 | 5 | 321 | 0.0 | 0.0 | 0.00 | 0.00 | 0.00 | 95 | 1012.6 |
| 20260503072256 | 5 | 319 | 0.0 | 0.0 | 0.00 | 0.00 | 0.00 | 95 | 1012.5 |
| 20260503071752 | 6 | 318 | 0.0 | 0.0 | 0.00 | 0.00 | 0.00 | 95 | 1012.3 |
| 20260503071250 | 6 | 318 | 0.0 | 0.0 | 0.00 | 0.00 | 0.00 | 95 | 1012.4 |
| 20260503070746 | 6 | 318 | 1.6 | 1.6 | 0.00 | 0.00 | 0.00 | 94 | 1012.4 |
| 20260503070244 | 6 | 320 | 0.0 | 0.0 | 0.00 | 0.00 | 0.00 | 94 | 1012.4 |
| 20260503060203 | 7 | 319 | 0.0 | 0.0 | 0.00 | 0.00 | 0.00 | 99 | 1012.1 |
| 20260503054650 | 6 | 322 | 0.0 | 0.0 | 0.00 | 0.00 | 0.00 | 99 | 1012.2 |
| 20260503054147 | 6 | 316 | 0.0 | 0.0 | 0.00 | 0.00 | 0.00 | 99 | 1012.1 |
| 20260503053645 | 6 | 316 | 0.0 | 0.0 | 0.00 | 0.00 | 0.00 | 99 | 1012.2 |
| 20260503053144 | 7 | 324 | 0.0 | 0.0 | 0.00 | 0.00 | 0.00 | 98 | 1012.2 |
| 20260503052640 | 7 | 325 | 0.0 | 0.0 | 0.00 | 0.00 | 0.00 | 98 | 1012.2 |
| 20260503052136 | 7 | 312 | 0.0 | 0.0 | 0.00 | 0.00 | 0.00 | 98 | 1012.2 |
| 20260503051631 | 7 | 312 | 0.0 | 0.0 | 0.00 | 0.00 | 0.00 | 98 | 1012.1 |
| 20260503051129 | 7 | 313 | 1.6 | 1.6 | 0.00 | 0.00 | 0.00 | 98 | 1012.4 |
| 20260503050626 | 7 | 313 | 0.0 | 0.0 | 0.00 | 0.00 | 0.00 | 98 | 1012.3 |
| 20260503050122 | 7 | 313 | 0.0 | 0.0 | 0.00 | 0.00 | 0.00 | 98 | 1012.2 |
| 20260503045620 | 7 | 313 | 0.0 | 0.0 | 0.00 | 0.00 | 0.00 | 98 | 1012.5 |
| 20260503045117 | 7 | 313 | 0.0 | 0.0 | 0.00 | 0.00 | 0.00 | 98 | 1012.1 |
| 20260503044613 | 7 | 315 | 0.0 | 0.0 | 0.00 | 0.00 | 0.00 | 97 | 1012.2 |
| 20260503044111 | 8 | 314 | 0.0 | 0.0 | 0.00 | 0.00 | 0.00 | 97 | 1012.1 |
| 20260503043607 | 8 | 317 | 0.0 | 0.0 | 0.00 | 0.00 | 0.00 | 97 | 1012.1 |
| 20260503043104 | 8 | 330 | 0.0 | 1.6 | 0.00 | 0.00 | 0.00 | 97 | 1012.0 |
| 20260503042601 | 8 | 338 | 1.6 | 1.6 | 0.00 | 0.00 | 0.00 | 97 | 1012.0 |
| 20260503042057 | 8 | 326 | 1.6 | 1.6 | 0.00 | 0.00 | 0.00 | 97 | 1011.9 |
| 20260503041554 | 8 | 321 | 0.0 | 1.6 | 0.00 | 0.00 | 0.00 | 97 | 1011.9 |
| 20260503041052 | 8 | 324 | 0.0 | 0.0 | 0.00 | 0.00 | 0.00 | 97 | 1011.8 |
| 20260503040549 | 8 | 324 | 0.0 | 0.0 | 0.00 | 0.00 | 0.00 | 97 | 1011.8 |
| 20260503040046 | 8 | 324 | 0.0 | 0.0 | 0.00 | 0.10 | 0.10 | 96 | 1012.0 |